Time,TemperatureF,DewpointF,PressureIn,WindDirection,WindDirectionDegrees,WindSpeedMPH,WindSpeedGustMPH,Humidity,HourlyPrecipIn,Conditions,Clouds,dailyrainin,SoftwareType,DateUTC
2013-05-31 00:00:00,62.6,48.5,30.12,North,0,0.0,0.0,60,0.00,RA,OVC,0.00,WeatherDisplay:10.37,2013-05-31 05:00:00,
2013-05-31 00:05:00,62.6,48.5,30.12,North,0,0.0,0.0,60,0.00,RA,OVC,0.00,WeatherDisplay:10.37,2013-05-31 05:05:00,
2013-05-31 00:10:00,62.8,48.7,30.12,North,0,0.0,0.0,60,0.00,SCT,OVC,0.00,WeatherDisplay:10.37,2013-05-31 05:10:00,
2013-05-31 00:15:00,62.8,48.7,30.15,North,0,0.0,0.0,60,0.00,SCT,OVC,0.00,WeatherDisplay:10.37,2013-05-31 05:15:00,
2013-05-31 00:20:00,62.8,49.1,30.15,North,0,0.0,0.0,61,0.00,SCT,OVC,0.00,WeatherDisplay:10.37,2013-05-31 05:20:00,
2013-05-31 00:25:00,62.8,49.1,30.15,North,0,0.0,0.0,61,0.00,SCT,OVC,0.00,WeatherDisplay:10.37,2013-05-31 05:25:00,
2013-05-31 00:30:00,62.8,49.1,30.15,North,0,0.0,0.0,61,0.00,SCT,OVC,0.00,WeatherDisplay:10.37,2013-05-31 05:30:00,
2013-05-31 00:35:00,62.8,49.1,30.15,North,0,0.0,0.0,61,0.00,SCT,OVC,0.00,WeatherDisplay:10.37,2013-05-31 05:35:00,
2013-05-31 00:40:00,62.8,49.1,30.15,North,0,0.0,0.0,61,0.00,SCT,OVC,0.00,WeatherDisplay:10.37,2013-05-31 05:40:00,
2013-05-31 00:45:00,63.0,49.3,30.15,North,0,0.0,0.0,61,0.00,SCT,OVC,0.00,WeatherDisplay:10.37,2013-05-31 05:45:00,
2013-05-31 00:50:00,63.0,49.3,30.15,North,0,0.0,0.0,61,0.00,SCT,OVC,0.00,WeatherDisplay:10.37,2013-05-31 05:50:00,
2013-05-31 00:55:00,63.0,49.3,30.15,North,0,0.0,0.0,61,0.00,SCT,OVC,0.00,WeatherDisplay:10.37,2013-05-31 05:55:00,
2013-05-31 01:00:00,62.8,49.1,30.15,North,0,0.0,0.0,61,0.00,SCT,OVC,0.00,WeatherDisplay:10.37,2013-05-31 06:00:00,
2013-05-31 01:05:00,62.8,49.1,30.15,North,0,0.0,0.0,61,0.00,SCT,OVC,0.00,WeatherDisplay:10.37,2013-05-31 06:05:00,
2013-05-31 01:10:00,63.0,49.7,30.15,North,0,0.0,0.0,62,0.00,SCT,OVC,0.00,WeatherDisplay:10.37,2013-05-31 06:10:00,
2013-05-31 01:15:00,63.0,49.7,30.15,North,0,0.0,0.0,62,0.00,SCT,OVC,0.00,WeatherDisplay:10.37,2013-05-31 06:15:00,
2013-05-31 01:20:00,63.0,49.7,30.15,North,0,0.0,0.0,62,0.00,BKN,OVC,0.00,WeatherDisplay:10.37,2013-05-31 06:20:00,
2013-05-31 01:25:00,63.0,49.7,30.15,North,0,0.0,0.0,62,0.00,BKN,OVC,0.00,WeatherDisplay:10.37,2013-05-31 06:25:00,
2013-05-31 01:30:00,63.0,49.7,30.15,North,0,0.0,0.0,62,0.00,BKN,OVC,0.00,WeatherDisplay:10.37,2013-05-31 06:30:00,
2013-05-31 01:35:00,63.0,49.7,30.15,North,0,0.0,0.0,62,0.00,BKN,OVC,0.00,WeatherDisplay:10.37,2013-05-31 06:35:00,
2013-05-31 01:40:00,63.0,49.7,30.15,North,0,0.0,0.0,62,0.00,BKN,OVC,0.00,WeatherDisplay:10.37,2013-05-31 06:40:00,
2013-05-31 01:45:00,63.1,49.9,30.15,North,0,0.0,0.0,62,0.00,BKN,OVC,0.00,WeatherDisplay:10.37,2013-05-31 06:45:00,
2013-05-31 01:50:00,63.0,49.7,30.15,North,0,0.0,0.0,62,0.00,BKN,OVC,0.00,WeatherDisplay:10.37,2013-05-31 06:50:00,
2013-05-31 01:55:00,63.0,49.7,30.15,North,0,0.0,0.0,62,0.00,BKN,OVC,0.00,WeatherDisplay:10.37,2013-05-31 06:55:00,
2013-05-31 02:00:00,63.0,49.7,30.15,North,0,0.0,0.0,62,0.00,BKN,OVC,0.00,WeatherDisplay:10.37,2013-05-31 07:00:00,
2013-05-31 02:05:00,63.0,49.7,30.15,North,0,0.0,0.0,62,0.00,OVC,,0.00,WeatherDisplay:10.37,2013-05-31 07:05:00,
2013-05-31 02:10:00,62.8,49.6,30.15,North,0,0.0,0.0,62,0.00,OVC,,0.00,WeatherDisplay:10.37,2013-05-31 07:10:00,
2013-05-31 02:15:00,62.8,49.6,30.15,North,0,0.0,0.0,62,0.00,OVC,,0.00,WeatherDisplay:10.37,2013-05-31 07:15:00,
2013-05-31 02:20:00,62.8,50.0,30.15,North,0,0.0,0.0,63,0.00,OVC,,0.00,WeatherDisplay:10.37,2013-05-31 07:20:00,
2013-05-31 02:25:00,62.8,50.0,30.15,North,0,0.0,0.0,63,0.00,OVC,,0.00,WeatherDisplay:10.37,2013-05-31 07:25:00,
2013-05-31 02:30:00,62.8,50.0,30.15,North,0,0.0,0.0,63,0.00,OVC,,0.00,WeatherDisplay:10.37,2013-05-31 07:30:00,
2013-05-31 02:35:00,62.8,50.0,30.15,North,0,0.0,0.0,63,0.00,OVC,,0.00,WeatherDisplay:10.37,2013-05-31 07:35:00,
2013-05-31 02:40:00,62.8,50.0,30.15,North,0,0.0,0.0,63,0.00,OVC,,0.00,WeatherDisplay:10.37,2013-05-31 07:40:00,
2013-05-31 02:45:00,62.8,50.0,30.15,North,0,0.0,0.0,63,0.00,OVC,,0.00,WeatherDisplay:10.37,2013-05-31 07:45:00,
2013-05-31 02:50:00,62.8,50.0,30.15,North,0,0.0,0.0,63,0.00,OVC,,0.00,WeatherDisplay:10.37,2013-05-31 07:50:00,
2013-05-31 02:55:00,63.0,50.2,30.15,North,0,0.0,0.0,63,0.00,OVC,,0.00,WeatherDisplay:10.37,2013-05-31 07:55:00,
2013-05-31 03:00:00,63.0,50.2,30.12,North,0,0.0,0.0,63,0.00,OVC,,0.00,WeatherDisplay:10.37,2013-05-31 08:00:00,
2013-05-31 03:05:00,63.0,50.2,30.12,North,0,0.0,0.0,63,0.00,BKN,OVC,0.00,WeatherDisplay:10.37,2013-05-31 08:05:00,
2013-05-31 03:10:00,63.0,50.2,30.12,North,0,0.0,0.0,63,0.00,BKN,OVC,0.00,WeatherDisplay:10.37,2013-05-31 08:10:00,
2013-05-31 03:15:00,63.1,50.3,30.15,North,0,0.0,0.0,63,0.00,BKN,OVC,0.00,WeatherDisplay:10.37,2013-05-31 08:15:00,
2013-05-31 03:20:00,63.1,50.3,30.15,North,0,0.0,0.0,63,0.00,OVC,,0.00,WeatherDisplay:10.37,2013-05-31 08:20:00,
2013-05-31 03:25:00,63.1,50.3,30.15,North,0,0.0,0.0,63,0.00,OVC,,0.00,WeatherDisplay:10.37,2013-05-31 08:25:00,
2013-05-31 03:30:00,63.1,50.3,30.15,North,0,0.0,0.0,63,0.00,OVC,,0.00,WeatherDisplay:10.37,2013-05-31 08:30:00,
2013-05-31 03:35:00,63.1,50.3,30.15,North,0,0.0,0.0,63,0.00,OVC,,0.00,WeatherDisplay:10.37,2013-05-31 08:35:00,
2013-05-31 03:40:00,63.1,50.3,30.15,North,0,0.0,0.0,63,0.00,OVC,,0.00,WeatherDisplay:10.37,2013-05-31 08:40:00,
2013-05-31 03:45:00,63.1,50.3,30.15,North,0,0.0,0.0,63,0.00,OVC,,0.00,WeatherDisplay:10.37,2013-05-31 08:45:00,
2013-05-31 03:50:00,63.1,50.3,30.15,North,0,0.0,0.0,63,0.00,OVC,,0.00,WeatherDisplay:10.37,2013-05-31 08:50:00,
2013-05-31 03:55:00,63.1,50.3,30.15,North,0,0.0,0.0,63,0.00,OVC,,0.00,WeatherDisplay:10.37,2013-05-31 08:55:00,
2013-05-31 04:00:00,63.1,50.3,30.15,North,0,0.0,0.0,63,0.00,OVC,,0.00,WeatherDisplay:10.37,2013-05-31 09:00:00,
2013-05-31 04:05:00,63.1,50.3,30.15,North,0,0.0,0.0,63,0.00,OVC,,0.00,WeatherDisplay:10.37,2013-05-31 09:05:00,
2013-05-31 04:10:00,63.1,50.3,30.15,North,0,0.0,0.0,63,0.00,OVC,,0.00,WeatherDisplay:10.37,2013-05-31 09:10:00,
2013-05-31 04:15:00,63.1,50.3,30.15,North,0,0.0,0.0,63,0.00,OVC,,0.00,WeatherDisplay:10.37,2013-05-31 09:15:00,
2013-05-31 04:20:00,63.0,50.2,30.15,North,0,0.0,0.0,63,0.00,BKN,OVC,0.00,WeatherDisplay:10.37,2013-05-31 09:20:00,
2013-05-31 04:25:00,63.0,50.2,30.15,North,0,0.0,0.0,63,0.00,BKN,OVC,0.00,WeatherDisplay:10.37,2013-05-31 09:25:00,
2013-05-31 04:30:00,63.0,50.2,30.15,North,0,0.0,0.0,63,0.00,BKN,OVC,0.00,WeatherDisplay:10.37,2013-05-31 09:30:00,
2013-05-31 04:35:00,63.0,50.2,30.15,North,0,0.0,0.0,63,0.00,SCT,OVC,0.00,WeatherDisplay:10.37,2013-05-31 09:35:00,
2013-05-31 04:40:00,63.1,50.3,30.15,North,0,0.0,0.0,63,0.00,SCT,OVC,0.00,WeatherDisplay:10.37,2013-05-31 09:40:00,
2013-05-31 04:45:00,63.0,50.2,30.15,North,0,0.0,0.0,63,0.00,SCT,OVC,0.00,WeatherDisplay:10.37,2013-05-31 09:45:00,
2013-05-31 04:50:00,63.0,50.2,30.15,North,0,0.0,0.0,63,0.00,BKN,OVC,0.00,WeatherDisplay:10.37,2013-05-31 09:50:00,
2013-05-31 04:55:00,63.0,50.2,30.15,North,0,0.0,0.0,63,0.00,BKN,OVC,0.00,WeatherDisplay:10.37,2013-05-31 09:55:00,
2013-05-31 05:00:00,63.0,50.2,30.15,North,0,0.0,0.0,63,0.00,BKN,OVC,0.00,WeatherDisplay:10.37,2013-05-31 10:00:00,
2013-05-31 05:05:00,63.0,50.2,30.15,North,0,0.0,0.0,63,0.00,SCT,OVC,0.00,WeatherDisplay:10.37,2013-05-31 10:05:00,
2013-05-31 05:10:00,62.8,50.0,30.15,North,0,0.0,0.0,63,0.00,SCT,OVC,0.00,WeatherDisplay:10.37,2013-05-31 10:10:00,
2013-05-31 05:15:00,62.8,50.0,30.15,North,0,0.0,0.0,63,0.00,SCT,OVC,0.00,WeatherDisplay:10.37,2013-05-31 10:15:00,
2013-05-31 05:20:00,62.8,50.0,30.15,North,0,0.0,0.0,63,0.00,SCT,OVC,0.00,WeatherDisplay:10.37,2013-05-31 10:20:00,
2013-05-31 05:25:00,62.6,49.8,30.15,North,0,0.0,0.0,63,0.00,SCT,OVC,0.00,WeatherDisplay:10.37,2013-05-31 10:25:00,
2013-05-31 05:30:00,62.4,50.1,30.15,North,0,0.0,0.0,64,0.00,SCT,OVC,0.00,WeatherDisplay:10.37,2013-05-31 10:30:00,
2013-05-31 05:35:00,62.2,49.9,30.15,North,0,0.0,0.0,64,0.00,SCT,OVC,0.00,WeatherDisplay:10.37,2013-05-31 10:35:00,
2013-05-31 05:40:00,62.2,49.9,30.15,North,0,0.0,0.0,64,0.00,SCT,OVC,0.00,WeatherDisplay:10.37,2013-05-31 10:40:00,
2013-05-31 05:45:00,62.1,49.7,30.12,North,0,0.0,0.0,64,0.00,SCT,OVC,0.00,WeatherDisplay:10.37,2013-05-31 10:45:00,
2013-05-31 05:50:00,62.1,49.7,30.12,North,0,0.0,0.0,64,0.00,SCT,OVC,0.00,WeatherDisplay:10.37,2013-05-31 10:50:00,
2013-05-31 05:55:00,61.9,49.6,30.12,North,0,0.0,0.0,64,0.00,SCT,OVC,0.00,WeatherDisplay:10.37,2013-05-31 10:55:00,
2013-05-31 06:00:00,61.9,49.6,30.15,North,0,0.0,0.0,64,0.00,SCT,OVC,0.00,WeatherDisplay:10.37,2013-05-31 11:00:00,
2013-05-31 06:05:00,61.9,49.6,30.15,North,0,0.0,0.0,64,0.00,CLR,OVC,0.00,WeatherDisplay:10.37,2013-05-31 11:05:00,
2013-05-31 06:10:00,61.9,49.6,30.15,North,0,0.0,0.0,64,0.00,CLR,OVC,0.00,WeatherDisplay:10.37,2013-05-31 11:10:00,
2013-05-31 06:15:00,62.1,49.7,30.12,North,0,0.0,0.0,64,0.00,CLR,OVC,0.00,WeatherDisplay:10.37,2013-05-31 11:15:00,
2013-05-31 06:20:00,62.2,50.3,30.12,North,0,0.0,0.0,65,0.00,CLR,OVC,0.00,WeatherDisplay:10.37,2013-05-31 11:20:00,
2013-05-31 06:25:00,62.2,50.3,30.12,North,0,0.0,0.0,65,0.00,CLR,OVC,0.00,WeatherDisplay:10.37,2013-05-31 11:25:00,
2013-05-31 06:30:00,62.4,50.5,30.12,North,0,0.0,0.0,65,0.00,CLR,OVC,0.00,WeatherDisplay:10.37,2013-05-31 11:30:00,
2013-05-31 06:35:00,62.6,50.2,30.12,North,0,0.0,0.0,64,0.00,CLR,OVC,0.00,WeatherDisplay:10.37,2013-05-31 11:35:00,
2013-05-31 06:40:00,62.6,50.7,30.12,North,0,0.0,0.0,65,0.00,CLR,OVC,0.00,WeatherDisplay:10.37,2013-05-31 11:40:00,
2013-05-31 06:45:00,62.8,50.8,30.12,North,0,0.0,0.0,65,0.00,CLR,OVC,0.00,WeatherDisplay:10.37,2013-05-31 11:45:00,
2013-05-31 06:50:00,62.8,50.8,30.12,North,0,0.0,0.0,65,0.00,CLR,OVC,0.00,WeatherDisplay:10.37,2013-05-31 11:50:00,
2013-05-31 06:55:00,63.0,51.0,30.12,North,0,0.0,0.0,65,0.00,CLR,OVC,0.00,WeatherDisplay:10.37,2013-05-31 11:55:00,
2013-05-31 07:00:00,63.0,51.0,30.12,North,0,0.0,0.0,65,0.00,CLR,OVC,0.00,WeatherDisplay:10.37,2013-05-31 12:00:00,
2013-05-31 07:05:00,63.1,51.2,30.12,North,0,0.0,0.0,65,0.00,CLR,OVC,0.00,WeatherDisplay:10.37,2013-05-31 12:05:00,
2013-05-31 07:10:00,63.5,51.5,30.12,North,0,0.0,0.0,65,0.00,CLR,OVC,0.00,WeatherDisplay:10.37,2013-05-31 12:10:00,
2013-05-31 07:15:00,63.7,52.1,30.12,North,0,0.0,0.0,66,0.00,CLR,OVC,0.00,WeatherDisplay:10.37,2013-05-31 12:15:00,
2013-05-31 07:20:00,64.0,52.4,30.12,North,0,0.0,0.0,66,0.00,FEW,OVC,0.00,WeatherDisplay:10.37,2013-05-31 12:20:00,
2013-05-31 07:25:00,64.2,52.6,30.12,North,0,0.0,0.0,66,0.00,FEW,OVC,0.00,WeatherDisplay:10.37,2013-05-31 12:25:00,
2013-05-31 07:30:00,64.2,52.2,30.15,North,0,0.0,0.0,65,0.00,FEW,OVC,0.00,WeatherDisplay:10.37,2013-05-31 12:30:00,
2013-05-31 07:35:00,64.2,52.2,30.15,North,0,0.0,0.0,65,0.00,FEW,OVC,0.00,WeatherDisplay:10.37,2013-05-31 12:35:00,
2013-05-31 07:40:00,64.4,52.4,30.15,North,0,0.0,0.0,65,0.00,FEW,OVC,0.00,WeatherDisplay:10.37,2013-05-31 12:40:00,
2013-05-31 07:45:00,64.6,53.0,30.15,North,0,0.0,0.0,66,0.00,FEW,OVC,0.00,WeatherDisplay:10.37,2013-05-31 12:45:00,
2013-05-31 07:50:00,64.8,53.1,30.15,North,0,0.0,0.0,66,0.00,BKN,OVC,0.00,WeatherDisplay:10.37,2013-05-31 12:50:00,
2013-05-31 07:55:00,64.9,53.3,30.15,North,0,0.0,0.0,66,0.00,BKN,OVC,0.00,WeatherDisplay:10.37,2013-05-31 12:55:00,
2013-05-31 08:00:00,65.1,53.5,30.15,North,0,0.0,0.0,66,0.00,BKN,OVC,0.00,WeatherDisplay:10.37,2013-05-31 13:00:00,
2013-05-31 08:05:00,65.3,53.6,30.15,North,0,0.0,0.0,66,0.00,BKN,OVC,0.00,WeatherDisplay:10.37,2013-05-31 13:05:00,
2013-05-31 08:10:00,65.5,53.8,30.15,North,0,0.0,0.0,66,0.00,BKN,OVC,0.00,WeatherDisplay:10.37,2013-05-31 13:10:00,
2013-05-31 08:15:00,65.7,54.0,30.15,North,0,0.0,0.0,66,0.00,BKN,OVC,0.00,WeatherDisplay:10.37,2013-05-31 13:15:00,
2013-05-31 08:20:00,65.8,54.2,30.15,North,0,0.0,0.0,66,0.00,OVC,,0.00,WeatherDisplay:10.37,2013-05-31 13:20:00,
2013-05-31 08:25:00,66.2,54.1,30.15,North,0,0.0,0.0,65,0.00,OVC,,0.00,WeatherDisplay:10.37,2013-05-31 13:25:00,
2013-05-31 08:30:00,66.4,54.3,30.15,North,0,0.0,0.0,65,0.00,OVC,,0.00,WeatherDisplay:10.37,2013-05-31 13:30:00,
2013-05-31 08:35:00,66.6,54.4,30.15,North,0,0.0,0.0,65,0.00,OVC,,0.00,WeatherDisplay:10.37,2013-05-31 13:35:00,
2013-05-31 08:40:00,66.9,54.8,30.15,North,0,0.0,0.0,65,0.00,OVC,,0.00,WeatherDisplay:10.37,2013-05-31 13:40:00,
2013-05-31 08:45:00,67.3,55.1,30.15,North,0,0.0,0.0,65,0.00,OVC,,0.00,WeatherDisplay:10.37,2013-05-31 13:45:00,
2013-05-31 08:50:00,67.5,54.9,30.15,North,0,0.0,0.0,64,0.00,OVC,,0.00,WeatherDisplay:10.37,2013-05-31 13:50:00,
2013-05-31 08:55:00,67.6,54.6,30.15,North,0,0.0,0.0,63,0.00,OVC,,0.00,WeatherDisplay:10.37,2013-05-31 13:55:00,
2013-05-31 09:00:00,67.8,54.8,30.15,North,0,0.0,0.0,63,0.00,OVC,,0.00,WeatherDisplay:10.37,2013-05-31 14:00:00,
2013-05-31 09:05:00,67.8,54.3,30.15,North,0,0.0,0.0,62,0.00,BKN,OVC,0.00,WeatherDisplay:10.37,2013-05-31 14:05:00,
2013-05-31 09:10:00,67.8,53.9,30.15,North,0,0.0,0.0,61,0.00,BKN,OVC,0.00,WeatherDisplay:10.37,2013-05-31 14:10:00,
2013-05-31 09:15:00,67.8,53.4,30.15,North,0,0.0,0.0,60,0.00,BKN,OVC,0.00,WeatherDisplay:10.37,2013-05-31 14:15:00,
2013-05-31 09:20:00,67.8,53.0,30.15,North,0,0.0,0.0,59,0.00,BKN,OVC,0.00,WeatherDisplay:10.37,2013-05-31 14:20:00,
2013-05-31 09:25:00,67.8,52.5,30.15,North,0,0.0,0.0,58,0.00,BKN,OVC,0.00,WeatherDisplay:10.37,2013-05-31 14:25:00,
2013-05-31 09:30:00,67.6,51.9,30.18,North,0,0.0,0.0,57,0.00,BKN,OVC,0.00,WeatherDisplay:10.37,2013-05-31 14:30:00,
2013-05-31 09:35:00,67.6,51.9,30.18,North,0,0.0,0.0,57,0.00,SCT,OVC,0.00,WeatherDisplay:10.37,2013-05-31 14:35:00,
2013-05-31 09:40:00,67.5,51.2,30.18,North,0,0.0,0.0,56,0.00,SCT,OVC,0.00,WeatherDisplay:10.37,2013-05-31 14:40:00,
2013-05-31 09:45:00,67.5,50.7,30.18,North,0,0.0,0.0,55,0.00,SCT,OVC,0.00,WeatherDisplay:10.37,2013-05-31 14:45:00,
2013-05-31 09:50:00,67.3,50.1,30.18,North,0,0.0,0.0,54,0.00,SCT,OVC,0.00,WeatherDisplay:10.37,2013-05-31 14:50:00,
2013-05-31 09:55:00,67.1,49.4,30.18,North,0,0.0,0.0,53,0.00,SCT,OVC,0.00,WeatherDisplay:10.37,2013-05-31 14:55:00,
2013-05-31 10:00:00,66.9,49.2,30.18,North,0,0.0,0.0,53,0.00,SCT,OVC,0.00,WeatherDisplay:10.37,2013-05-31 15:00:00,
2013-05-31 10:05:00,66.7,49.1,30.18,North,0,0.0,0.0,53,0.00,FEW,OVC,0.00,WeatherDisplay:10.37,2013-05-31 15:05:00,
2013-05-31 10:10:00,66.7,49.1,30.18,North,0,0.0,0.0,53,0.00,FEW,OVC,0.00,WeatherDisplay:10.37,2013-05-31 15:10:00,
2013-05-31 10:15:00,66.7,48.5,30.15,North,0,0.0,0.0,52,0.00,FEW,OVC,0.00,WeatherDisplay:10.37,2013-05-31 15:15:00,
2013-05-31 10:20:00,66.4,47.7,30.15,North,0,0.0,0.0,51,0.00,FEW,OVC,0.00,WeatherDisplay:10.37,2013-05-31 15:20:00,
2013-05-31 10:25:00,66.2,47.5,30.15,North,0,0.0,0.0,51,0.00,FEW,OVC,0.00,WeatherDisplay:10.37,2013-05-31 15:25:00,
2013-05-31 10:30:00,66.0,47.4,30.15,North,0,0.0,0.0,51,0.00,FEW,OVC,0.00,WeatherDisplay:10.37,2013-05-31 15:30:00,
2013-05-31 10:35:00,65.8,46.7,30.15,North,0,0.0,0.0,50,0.00,FEW,OVC,0.00,WeatherDisplay:10.37,2013-05-31 15:35:00,
2013-05-31 10:40:00,65.5,46.3,30.15,North,0,0.0,0.0,50,0.00,FEW,OVC,0.00,WeatherDisplay:10.37,2013-05-31 15:40:00,
2013-05-31 10:45:00,65.1,45.5,30.15,North,0,0.0,0.0,49,0.00,FEW,OVC,0.00,WeatherDisplay:10.37,2013-05-31 15:45:00,
2013-05-31 10:50:00,64.8,45.1,30.15,North,0,0.0,0.0,49,0.00,FEW,OVC,0.00,WeatherDisplay:10.37,2013-05-31 15:50:00,
2013-05-31 10:55:00,64.4,44.3,30.15,North,0,0.0,0.0,48,0.04,RA,OVC,0.04,WeatherDisplay:10.37,2013-05-31 15:55:00,
2013-05-31 11:00:00,64.0,43.9,30.12,North,0,0.0,0.0,48,0.04,RA,OVC,0.04,WeatherDisplay:10.37,2013-05-31 16:00:00,
2013-05-31 11:05:00,63.7,43.1,30.12,North,0,0.0,0.0,47,0.04,-RA,OVC,0.04,WeatherDisplay:10.37,2013-05-31 16:05:00,
2013-05-31 11:10:00,63.7,43.1,30.12,North,0,0.0,0.0,47,0.04,-RA,OVC,0.04,WeatherDisplay:10.37,2013-05-31 16:10:00,
2013-05-31 11:15:00,63.9,42.7,30.06,North,0,0.0,0.0,46,0.04,-RA,OVC,0.04,WeatherDisplay:10.37,2013-05-31 16:15:00,
2013-05-31 11:20:00,64.2,43.0,30.06,North,0,0.0,0.0,46,0.04,-RA,OVC,0.04,WeatherDisplay:10.37,2013-05-31 16:20:00,
2013-05-31 11:25:00,64.4,42.0,30.06,North,0,0.0,0.0,44,0.04,-RA,OVC,0.04,WeatherDisplay:10.37,2013-05-31 16:25:00,
2013-05-31 11:30:00,64.8,40.5,30.12,North,0,0.0,0.0,41,0.04,-RA,OVC,0.04,WeatherDisplay:10.37,2013-05-31 16:30:00,
2013-05-31 11:35:00,65.1,39.5,30.12,North,0,0.0,0.0,39,0.04,-RA,OVC,0.04,WeatherDisplay:10.37,2013-05-31 16:35:00,
2013-05-31 11:40:00,65.3,39.0,30.12,North,0,0.0,0.0,38,0.04,-RA,OVC,0.04,WeatherDisplay:10.37,2013-05-31 16:40:00,
2013-05-31 11:45:00,65.8,38.1,30.09,North,0,0.0,0.0,36,0.04,-RA,OVC,0.04,WeatherDisplay:10.37,2013-05-31 16:45:00,
2013-05-31 11:50:00,66.4,37.1,30.09,North,0,0.0,0.0,34,0.04,-RA,OVC,0.04,WeatherDisplay:10.37,2013-05-31 16:50:00,
2013-05-31 11:55:00,66.6,37.3,30.09,North,0,0.0,0.0,34,0.00,-RA,OVC,0.04,WeatherDisplay:10.37,2013-05-31 16:55:00,
2013-05-31 12:00:00,67.1,37.8,30.15,North,0,0.0,0.0,34,0.00,-RA,OVC,0.04,WeatherDisplay:10.37,2013-05-31 17:00:00,
2013-05-31 12:05:00,67.8,39.2,30.15,North,0,0.0,0.0,35,0.00,CLR,OVC,0.04,WeatherDisplay:10.37,2013-05-31 17:05:00,
2013-05-31 12:10:00,68.7,39.2,30.15,North,0,0.0,0.0,34,0.00,CLR,OVC,0.04,WeatherDisplay:10.37,2013-05-31 17:10:00,
2013-05-31 12:15:00,69.4,39.1,30.12,North,0,0.0,0.0,33,0.00,CLR,OVC,0.04,WeatherDisplay:10.37,2013-05-31 17:15:00,
2013-05-31 12:20:00,69.6,38.4,30.12,North,0,0.0,0.0,32,0.00,CLR,OVC,0.04,WeatherDisplay:10.37,2013-05-31 17:20:00,
2013-05-31 12:25:00,69.8,36.1,30.12,North,0,0.0,0.0,29,0.00,CLR,OVC,0.04,WeatherDisplay:10.37,2013-05-31 17:25:00,
2013-05-31 12:30:00,70.2,32.7,30.12,North,0,0.0,0.0,25,0.00,CLR,OVC,0.04,WeatherDisplay:10.37,2013-05-31 17:30:00,
2013-05-31 12:35:00,71.1,32.4,30.12,North,0,0.0,0.0,24,0.00,CLR,OVC,0.04,WeatherDisplay:10.37,2013-05-31 17:35:00,
2013-05-31 12:40:00,71.2,31.5,30.12,North,0,0.0,0.0,23,0.00,CLR,OVC,0.04,WeatherDisplay:10.37,2013-05-31 17:40:00,
2013-05-31 12:45:00,70.9,30.1,30.12,North,0,0.0,0.0,22,0.00,CLR,OVC,0.04,WeatherDisplay:10.37,2013-05-31 17:45:00,
2013-05-31 12:50:00,70.7,30.0,30.12,North,0,0.0,0.0,22,0.00,CLR,OVC,0.04,WeatherDisplay:10.37,2013-05-31 17:50:00,
2013-05-31 12:55:00,70.7,30.0,30.12,North,0,0.0,0.0,22,0.00,CLR,OVC,0.04,WeatherDisplay:10.37,2013-05-31 17:55:00,
2013-05-31 13:00:00,70.5,29.8,30.15,North,0,0.0,0.0,22,0.00,CLR,OVC,0.04,WeatherDisplay:10.37,2013-05-31 18:00:00,
2013-05-31 13:05:00,70.3,29.7,30.15,North,0,0.0,0.0,22,0.00,CLR,OVC,0.04,WeatherDisplay:10.37,2013-05-31 18:05:00,
2013-05-31 13:10:00,70.2,29.5,30.15,North,0,0.0,0.0,22,0.00,CLR,OVC,0.04,WeatherDisplay:10.37,2013-05-31 18:10:00,
2013-05-31 13:15:00,70.2,29.5,30.15,North,0,0.0,0.0,22,0.00,CLR,OVC,0.04,WeatherDisplay:10.37,2013-05-31 18:15:00,
2013-05-31 13:20:00,70.0,30.5,30.15,North,0,0.0,0.0,23,0.00,CLR,OVC,0.04,WeatherDisplay:10.37,2013-05-31 18:20:00,
2013-05-31 13:25:00,69.8,30.3,30.15,North,0,0.0,0.0,23,0.00,CLR,OVC,0.04,WeatherDisplay:10.37,2013-05-31 18:25:00,
2013-05-31 13:30:00,69.8,30.3,30.15,North,0,0.0,0.0,23,0.00,CLR,OVC,0.04,WeatherDisplay:10.37,2013-05-31 18:30:00,
2013-05-31 13:35:00,70.0,30.5,30.15,North,0,0.0,0.0,23,0.00,CLR,OVC,0.04,WeatherDisplay:10.37,2013-05-31 18:35:00,
2013-05-31 13:40:00,70.0,30.5,30.15,North,0,0.0,0.0,23,0.00,CLR,OVC,0.04,WeatherDisplay:10.37,2013-05-31 18:40:00,
2013-05-31 13:45:00,70.2,30.6,30.15,North,0,0.0,0.0,23,0.00,CLR,OVC,0.04,WeatherDisplay:10.37,2013-05-31 18:45:00,
2013-05-31 13:50:00,70.0,30.5,30.15,North,0,0.0,0.0,23,0.00,CLR,OVC,0.04,WeatherDisplay:10.37,2013-05-31 18:50:00,
2013-05-31 13:55:00,69.8,31.4,30.15,North,0,0.0,0.0,24,0.00,CLR,OVC,0.04,WeatherDisplay:10.37,2013-05-31 18:55:00,
2013-05-31 14:00:00,69.6,32.2,30.12,North,0,0.0,0.0,25,0.00,CLR,OVC,0.04,WeatherDisplay:10.37,2013-05-31 19:00:00,
2013-05-31 14:05:00,69.6,32.2,30.12,North,0,0.0,0.0,25,0.00,-RA,OVC,0.04,WeatherDisplay:10.37,2013-05-31 19:05:00,
2013-05-31 14:10:00,69.6,31.2,30.12,North,0,0.0,0.0,24,0.00,-RA,OVC,0.04,WeatherDisplay:10.37,2013-05-31 19:10:00,
2013-05-31 14:15:00,69.8,31.4,30.15,North,0,0.0,0.0,24,0.00,-RA,OVC,0.04,WeatherDisplay:10.37,2013-05-31 19:15:00,
2013-05-31 14:20:00,70.0,31.5,30.15,North,0,0.0,0.0,24,0.00,-RA,OVC,0.04,WeatherDisplay:10.37,2013-05-31 19:20:00,
2013-05-31 14:25:00,70.2,31.7,30.15,North,0,0.0,0.0,24,0.00,-RA,OVC,0.04,WeatherDisplay:10.37,2013-05-31 19:25:00,
2013-05-31 14:30:00,69.8,31.4,30.12,North,0,0.0,0.0,24,0.00,-RA,OVC,0.04,WeatherDisplay:10.37,2013-05-31 19:30:00,
2013-05-31 14:35:00,69.6,32.2,30.12,North,0,0.0,0.0,25,0.00,-RA,OVC,0.04,WeatherDisplay:10.37,2013-05-31 19:35:00,
2013-05-31 14:40:00,70.0,32.5,30.12,North,0,0.0,0.0,25,0.00,-RA,OVC,0.04,WeatherDisplay:10.37,2013-05-31 19:40:00,
2013-05-31 14:45:00,70.5,34.0,30.09,North,0,0.0,0.0,26,0.00,-RA,OVC,0.04,WeatherDisplay:10.37,2013-05-31 19:45:00,
2013-05-31 14:50:00,71.1,33.4,30.09,North,0,0.0,0.0,25,0.00,-RA,OVC,0.04,WeatherDisplay:10.37,2013-05-31 19:50:00,
2013-05-31 14:55:00,72.0,33.2,30.09,North,0,0.0,0.0,24,0.00,-RA,OVC,0.04,WeatherDisplay:10.37,2013-05-31 19:55:00,
2013-05-31 15:01:00,74.1,32.8,30.09,North,0,0.0,0.0,22,0.00,FEW,OVC,0.04,WeatherDisplay:10.37,2013-05-31 20:01:00,
2013-05-31 15:06:00,74.8,28.5,30.09,North,0,0.0,0.0,18,0.00,FEW,OVC,0.04,WeatherDisplay:10.37,2013-05-31 20:06:00,
2013-05-31 15:11:00,75.4,28.9,30.09,North,0,0.0,0.0,18,0.00,FEW,OVC,0.04,WeatherDisplay:10.37,2013-05-31 20:11:00,
2013-05-31 15:16:00,75.7,24.8,30.12,North,0,0.0,0.0,15,0.00,FEW,OVC,0.04,WeatherDisplay:10.37,2013-05-31 20:16:00,
2013-05-31 15:21:00,76.3,25.2,30.12,North,0,0.0,0.0,15,0.00,FEW,OVC,0.04,WeatherDisplay:10.37,2013-05-31 20:21:00,
2013-05-31 15:26:00,76.8,30.1,30.12,North,0,0.0,0.0,18,0.00,FEW,OVC,0.04,WeatherDisplay:10.37,2013-05-31 20:26:00,
2013-05-31 15:31:00,77.4,26.1,30.12,North,0,0.0,0.0,15,0.00,FEW,OVC,0.04,WeatherDisplay:10.37,2013-05-31 20:31:00,
2013-05-31 15:36:00,77.9,26.5,30.12,North,0,0.0,0.0,15,0.00,FEW,OVC,0.04,WeatherDisplay:10.37,2013-05-31 20:36:00,
2013-05-31 15:41:00,77.7,26.4,30.12,North,0,0.0,0.0,15,0.00,FEW,OVC,0.04,WeatherDisplay:10.37,2013-05-31 20:41:00,
2013-05-31 15:46:00,77.0,25.8,30.12,North,0,0.0,0.0,15,0.00,FEW,OVC,0.04,WeatherDisplay:10.37,2013-05-31 20:46:00,
2013-05-31 15:51:00,76.8,25.6,30.12,North,0,0.0,0.0,15,0.00,FEW,OVC,0.04,WeatherDisplay:10.37,2013-05-31 20:51:00,
2013-05-31 15:56:00,76.8,25.6,30.12,North,0,0.0,0.0,15,0.00,FEW,OVC,0.04,WeatherDisplay:10.37,2013-05-31 20:56:00,
2013-05-31 16:01:00,76.8,25.6,30.12,North,0,0.0,0.0,15,0.00,FEW,OVC,0.04,WeatherDisplay:10.37,2013-05-31 21:01:00,
2013-05-31 16:06:00,76.1,29.5,30.12,North,0,0.0,0.0,18,0.00,FEW,OVC,0.04,WeatherDisplay:10.37,2013-05-31 21:06:00,
2013-05-31 16:11:00,75.7,29.2,30.12,North,0,0.0,0.0,18,0.00,FEW,OVC,0.04,WeatherDisplay:10.37,2013-05-31 21:11:00,
2013-05-31 16:16:00,76.5,32.4,30.12,North,0,0.0,0.0,20,0.00,FEW,OVC,0.04,WeatherDisplay:10.37,2013-05-31 21:16:00,
2013-05-31 16:21:00,77.2,30.4,30.12,North,0,0.0,0.0,18,0.00,FEW,OVC,0.04,WeatherDisplay:10.37,2013-05-31 21:21:00,
2013-05-31 16:26:00,77.9,31.0,30.12,North,0,0.0,0.0,18,0.00,FEW,OVC,0.04,WeatherDisplay:10.37,2013-05-31 21:26:00,
2013-05-31 16:31:00,78.1,26.6,30.12,North,0,0.0,0.0,15,0.00,FEW,OVC,0.04,WeatherDisplay:10.37,2013-05-31 21:31:00,
2013-05-31 16:36:00,78.3,26.8,30.12,North,0,0.0,0.0,15,0.00,FEW,OVC,0.04,WeatherDisplay:10.37,2013-05-31 21:36:00,
2013-05-31 16:41:00,78.4,26.9,30.12,North,0,0.0,0.0,15,0.00,FEW,OVC,0.04,WeatherDisplay:10.37,2013-05-31 21:41:00,
2013-05-31 16:46:00,78.1,26.6,30.12,North,0,0.0,0.0,15,0.00,FEW,OVC,0.04,WeatherDisplay:10.37,2013-05-31 21:46:00,
2013-05-31 16:51:00,77.9,26.5,30.12,North,0,0.0,0.0,15,0.00,FEW,OVC,0.04,WeatherDisplay:10.37,2013-05-31 21:51:00,
2013-05-31 16:56:00,77.7,26.4,30.12,North,0,0.0,0.0,15,0.00,FEW,OVC,0.04,WeatherDisplay:10.37,2013-05-31 21:56:00,
2013-05-31 17:01:00,77.4,30.5,30.12,North,0,0.0,0.0,18,0.00,FEW,OVC,0.04,WeatherDisplay:10.37,2013-05-31 22:01:00,
2013-05-31 17:06:00,77.2,30.4,30.12,North,0,0.0,0.0,18,0.00,FEW,OVC,0.04,WeatherDisplay:10.37,2013-05-31 22:06:00,
2013-05-31 17:11:00,76.6,29.9,30.12,North,0,0.0,0.0,18,0.00,FEW,OVC,0.04,WeatherDisplay:10.37,2013-05-31 22:11:00,
2013-05-31 17:16:00,75.7,31.8,30.09,North,0,0.0,0.0,20,0.00,FEW,OVC,0.04,WeatherDisplay:10.37,2013-05-31 22:16:00,
2013-05-31 17:21:00,74.8,32.3,30.09,North,0,0.0,0.0,21,0.00,FEW,OVC,0.04,WeatherDisplay:10.37,2013-05-31 22:21:00,
2013-05-31 17:26:00,74.3,33.0,30.09,North,0,0.0,0.0,22,0.00,FEW,OVC,0.04,WeatherDisplay:10.37,2013-05-31 22:26:00,
2013-05-31 17:31:00,74.1,33.9,30.09,North,0,0.0,0.0,23,0.00,BKN,OVC,0.04,WeatherDisplay:10.37,2013-05-31 22:31:00,
2013-05-31 17:36:00,74.1,33.9,30.09,North,0,0.0,0.0,23,0.00,BKN,OVC,0.04,WeatherDisplay:10.37,2013-05-31 22:36:00,
2013-05-31 17:41:00,74.3,35.2,30.09,North,0,0.0,0.0,24,0.00,BKN,OVC,0.04,WeatherDisplay:10.37,2013-05-31 22:41:00,
2013-05-31 17:46:00,74.1,35.0,30.09,North,0,0.0,0.0,24,0.00,BKN,OVC,0.04,WeatherDisplay:10.37,2013-05-31 22:46:00,
2013-05-31 17:51:00,73.9,34.8,30.09,North,0,0.0,0.0,24,0.00,BKN,OVC,0.04,WeatherDisplay:10.37,2013-05-31 22:51:00,
2013-05-31 17:57:00,73.6,35.6,30.09,North,0,0.0,0.0,25,0.00,BKN,OVC,0.04,WeatherDisplay:10.37,2013-05-31 22:57:00,
2013-05-31 18:02:00,73.6,35.6,30.09,North,0,0.0,0.0,25,0.00,BKN,OVC,0.04,WeatherDisplay:10.37,2013-05-31 23:02:00,
2013-05-31 18:07:00,73.4,36.4,30.09,North,0,0.0,0.0,26,0.00,BKN,OVC,0.04,WeatherDisplay:10.37,2013-05-31 23:07:00,
2013-05-31 18:12:00,73.4,36.4,30.09,North,0,0.0,0.0,26,0.00,BKN,OVC,0.04,WeatherDisplay:10.37,2013-05-31 23:12:00,
2013-05-31 18:17:00,73.6,37.5,30.09,North,0,0.0,0.0,27,0.00,BKN,OVC,0.04,WeatherDisplay:10.37,2013-05-31 23:17:00,
2013-05-31 18:22:00,73.6,37.5,30.09,North,0,0.0,0.0,27,0.00,BKN,OVC,0.04,WeatherDisplay:10.37,2013-05-31 23:22:00,
2013-05-31 18:27:00,73.4,37.4,30.09,North,0,0.0,0.0,27,0.00,BKN,OVC,0.04,WeatherDisplay:10.37,2013-05-31 23:27:00,
2013-05-31 18:32:00,73.0,38.0,30.09,North,0,0.0,0.0,28,0.00,BKN,OVC,0.04,WeatherDisplay:10.37,2013-05-31 23:32:00,
2013-05-31 18:37:00,72.9,37.8,30.09,North,0,0.0,0.0,28,0.00,BKN,OVC,0.04,WeatherDisplay:10.37,2013-05-31 23:37:00,
2013-05-31 18:42:00,72.7,38.6,30.09,North,0,0.0,0.0,29,0.00,BKN,OVC,0.04,WeatherDisplay:10.37,2013-05-31 23:42:00,
2013-05-31 18:47:00,72.3,39.1,30.09,North,0,0.0,0.0,30,0.00,SCT,OVC,0.04,WeatherDisplay:10.37,2013-05-31 23:47:00,
2013-05-31 18:52:00,72.5,39.3,30.09,North,0,0.0,0.0,30,0.00,SCT,OVC,0.04,WeatherDisplay:10.37,2013-05-31 23:52:00,
2013-05-31 18:57:00,72.5,39.3,30.09,North,0,0.0,0.0,30,0.00,SCT,OVC,0.04,WeatherDisplay:10.37,2013-05-31 23:57:00,
2013-05-31 19:02:00,72.7,40.3,30.09,North,0,0.0,0.0,31,0.00,FEW,OVC,0.04,WeatherDisplay:10.37,2013-06-01 00:02:00,
2013-05-31 19:07:00,72.7,40.3,30.09,North,0,0.0,0.0,31,0.00,FEW,OVC,0.04,WeatherDisplay:10.37,2013-06-01 00:07:00,
2013-05-31 19:12:00,72.7,40.3,30.09,North,0,0.0,0.0,31,0.00,FEW,OVC,0.04,WeatherDisplay:10.37,2013-06-01 00:12:00,
2013-05-31 19:17:00,72.7,40.3,30.09,North,0,0.0,0.0,31,0.00,FEW,OVC,0.04,WeatherDisplay:10.37,2013-06-01 00:17:00,
2013-05-31 19:22:00,72.7,40.3,30.09,North,0,0.0,0.0,31,0.00,FEW,OVC,0.04,WeatherDisplay:10.37,2013-06-01 00:22:00,
2013-05-31 19:27:00,72.5,40.1,30.09,North,0,0.0,0.0,31,0.00,FEW,OVC,0.04,WeatherDisplay:10.37,2013-06-01 00:27:00,
2013-05-31 19:32:00,72.5,40.1,30.06,North,0,0.0,0.0,31,0.00,FEW,OVC,0.04,WeatherDisplay:10.37,2013-06-01 00:32:00,
2013-05-31 19:37:00,72.3,40.0,30.06,North,0,0.0,0.0,31,0.00,FEW,OVC,0.04,WeatherDisplay:10.37,2013-06-01 00:37:00,
2013-05-31 19:42:00,72.1,40.6,30.06,North,0,0.0,0.0,32,0.00,FEW,OVC,0.04,WeatherDisplay:10.37,2013-06-01 00:42:00,
2013-05-31 19:47:00,72.0,40.5,30.09,North,0,0.0,0.0,32,0.00,FEW,OVC,0.04,WeatherDisplay:10.37,2013-06-01 00:47:00,
2013-05-31 19:52:00,72.0,40.5,30.09,North,0,0.0,0.0,32,0.00,FEW,OVC,0.04,WeatherDisplay:10.37,2013-06-01 00:52:00,
2013-05-31 19:57:00,71.8,40.3,30.09,North,0,0.0,0.0,32,0.00,FEW,OVC,0.04,WeatherDisplay:10.37,2013-06-01 00:57:00,
2013-05-31 20:02:00,71.8,40.3,30.09,North,0,0.0,0.0,32,0.00,FEW,OVC,0.04,WeatherDisplay:10.37,2013-06-01 01:02:00,
2013-05-31 20:07:00,71.6,40.2,30.09,North,0,0.0,0.0,32,0.00,FEW,OVC,0.04,WeatherDisplay:10.37,2013-06-01 01:07:00,
2013-05-31 20:12:00,71.4,40.8,30.09,North,0,0.0,0.0,33,0.00,FEW,OVC,0.04,WeatherDisplay:10.37,2013-06-01 01:12:00,
2013-05-31 20:17:00,71.4,40.8,30.06,North,0,0.0,0.0,33,0.00,FEW,OVC,0.04,WeatherDisplay:10.37,2013-06-01 01:17:00,
2013-05-31 20:22:00,71.2,40.6,30.06,North,0,0.0,0.0,33,0.00,FEW,OVC,0.04,WeatherDisplay:10.37,2013-06-01 01:22:00,
2013-05-31 20:27:00,71.1,40.5,30.06,North,0,0.0,0.0,33,0.00,FEW,OVC,0.04,WeatherDisplay:10.37,2013-06-01 01:27:00,
2013-05-31 20:32:00,70.9,40.3,30.06,North,0,0.0,0.0,33,0.00,FEW,OVC,0.04,WeatherDisplay:10.37,2013-06-01 01:32:00,
2013-05-31 20:37:00,70.9,41.1,30.06,North,0,0.0,0.0,34,0.00,FEW,OVC,0.04,WeatherDisplay:10.37,2013-06-01 01:37:00,
2013-05-31 20:42:00,70.7,40.9,30.06,North,0,0.0,0.0,34,0.00,FEW,OVC,0.04,WeatherDisplay:10.37,2013-06-01 01:42:00,
2013-05-31 20:47:00,70.5,40.8,30.06,North,0,0.0,0.0,34,0.00,FEW,OVC,0.04,WeatherDisplay:10.37,2013-06-01 01:47:00,
2013-05-31 20:52:00,70.5,41.5,30.06,North,0,0.0,0.0,35,0.00,FEW,OVC,0.04,WeatherDisplay:10.37,2013-06-01 01:52:00,
2013-05-31 20:57:00,70.3,41.4,30.06,North,0,0.0,0.0,35,0.00,FEW,OVC,0.04,WeatherDisplay:10.37,2013-06-01 01:57:00,
2013-05-31 21:02:00,70.3,41.4,30.06,North,0,0.0,0.0,35,0.00,CLR,OVC,0.04,WeatherDisplay:10.37,2013-06-01 02:02:00,
2013-05-31 21:07:00,70.3,42.1,30.06,North,0,0.0,0.0,36,0.00,CLR,OVC,0.04,WeatherDisplay:10.37,2013-06-01 02:07:00,
2013-05-31 21:12:00,70.3,42.1,30.06,North,0,0.0,0.0,36,0.00,CLR,OVC,0.04,WeatherDisplay:10.37,2013-06-01 02:12:00,
2013-05-31 21:17:00,70.3,42.8,30.06,North,0,0.0,0.0,37,0.00,CLR,OVC,0.04,WeatherDisplay:10.37,2013-06-01 02:17:00,
2013-05-31 21:22:00,70.3,42.8,30.06,North,0,0.0,0.0,37,0.00,CLR,OVC,0.04,WeatherDisplay:10.37,2013-06-01 02:22:00,
2013-05-31 21:27:00,70.3,43.5,30.06,North,0,0.0,0.0,38,0.00,CLR,OVC,0.04,WeatherDisplay:10.37,2013-06-01 02:27:00,
2013-05-31 21:32:00,70.3,43.5,30.06,North,0,0.0,0.0,38,0.00,CLR,OVC,0.04,WeatherDisplay:10.37,2013-06-01 02:32:00,
2013-05-31 21:37:00,70.3,44.2,30.06,North,0,0.0,0.0,39,0.00,CLR,OVC,0.04,WeatherDisplay:10.37,2013-06-01 02:37:00,
2013-05-31 21:42:00,70.3,44.2,30.06,North,0,0.0,0.0,39,0.00,CLR,OVC,0.04,WeatherDisplay:10.37,2013-06-01 02:42:00,
2013-05-31 21:47:00,70.3,44.9,30.09,North,0,0.0,0.0,40,0.00,BKN,OVC,0.04,WeatherDisplay:10.37,2013-06-01 02:47:00,
2013-05-31 21:52:00,70.3,44.9,30.09,North,0,0.0,0.0,40,0.00,BKN,OVC,0.04,WeatherDisplay:10.37,2013-06-01 02:52:00,
2013-05-31 21:57:00,70.3,44.9,30.09,North,0,0.0,0.0,40,0.00,BKN,OVC,0.04,WeatherDisplay:10.37,2013-06-01 02:57:00,
2013-05-31 22:02:00,70.2,44.7,30.09,North,0,0.0,0.0,40,0.00,BKN,OVC,0.04,WeatherDisplay:10.37,2013-06-01 03:02:00,
2013-05-31 22:07:00,70.0,45.2,30.09,North,0,0.0,0.0,41,0.00,BKN,OVC,0.04,WeatherDisplay:10.37,2013-06-01 03:07:00,
2013-05-31 22:12:00,70.0,45.2,30.09,North,0,0.0,0.0,41,0.00,BKN,OVC,0.04,WeatherDisplay:10.37,2013-06-01 03:12:00,
2013-05-31 22:17:00,69.8,45.7,30.06,North,0,0.0,0.0,42,0.00,BKN,OVC,0.04,WeatherDisplay:10.37,2013-06-01 03:17:00,
2013-05-31 22:22:00,69.8,45.7,30.06,North,0,0.0,0.0,42,0.00,BKN,OVC,0.04,WeatherDisplay:10.37,2013-06-01 03:22:00,
2013-05-31 22:27:00,69.6,46.1,30.06,North,0,0.0,0.0,43,0.00,BKN,OVC,0.04,WeatherDisplay:10.37,2013-06-01 03:27:00,
2013-05-31 22:32:00,69.6,46.1,30.09,North,0,0.0,0.0,43,0.00,BKN,OVC,0.04,WeatherDisplay:10.37,2013-06-01 03:32:00,
2013-05-31 22:37:00,69.4,46.0,30.09,North,0,0.0,0.0,43,0.00,BKN,OVC,0.04,WeatherDisplay:10.37,2013-06-01 03:37:00,
2013-05-31 22:42:00,69.4,46.6,30.09,North,0,0.0,0.0,44,0.00,BKN,OVC,0.04,WeatherDisplay:10.37,2013-06-01 03:42:00,
2013-05-31 22:47:00,69.4,46.6,30.06,North,0,0.0,0.0,44,0.00,BKN,OVC,0.04,WeatherDisplay:10.37,2013-06-01 03:47:00,
2013-05-31 22:52:00,69.4,46.6,30.06,North,0,0.0,0.0,44,0.00,BKN,OVC,0.04,WeatherDisplay:10.37,2013-06-01 03:52:00,
2013-05-31 22:57:00,69.4,47.2,30.06,North,0,0.0,0.0,45,0.00,BKN,OVC,0.04,WeatherDisplay:10.37,2013-06-01 03:57:00,
2013-05-31 23:01:00,69.3,47.0,30.06,North,0,0.0,0.0,45,0.00,CLR,OVC,0.04,WeatherDisplay:10.37,2013-06-01 04:01:00,
2013-05-31 23:02:00,69.3,47.0,30.06,North,0,0.0,0.0,45,0.00,CLR,OVC,0.04,WeatherDisplay:10.37,2013-06-01 04:02:00,
2013-05-31 23:03:00,69.3,47.0,30.06,North,0,0.0,0.0,45,0.00,CLR,OVC,0.04,WeatherDisplay:10.37,2013-06-01 04:03:00,
2013-05-31 23:08:00,69.1,46.8,30.06,North,0,0.0,0.0,45,0.00,CLR,OVC,0.04,WeatherDisplay:10.37,2013-06-01 04:08:00,
2013-05-31 23:13:00,68.9,46.7,30.06,North,0,0.0,0.0,45,0.00,CLR,OVC,0.04,WeatherDisplay:10.37,2013-06-01 04:13:00,
2013-05-31 23:18:00,68.7,46.5,30.06,North,0,0.0,0.0,45,0.00,CLR,OVC,0.04,WeatherDisplay:10.37,2013-06-01 04:18:00,
2013-05-31 23:23:00,68.5,46.3,30.06,North,0,0.0,0.0,45,0.00,CLR,OVC,0.04,WeatherDisplay:10.37,2013-06-01 04:23:00,
2013-05-31 23:28:00,68.2,45.4,30.06,North,0,0.0,0.0,44,0.00,CLR,OVC,0.04,WeatherDisplay:10.37,2013-06-01 04:28:00,
2013-05-31 23:33:00,68.0,45.3,30.06,North,0,0.0,0.0,44,0.00,CLR,OVC,0.04,WeatherDisplay:10.37,2013-06-01 04:33:00,
2013-05-31 23:38:00,67.6,45.5,30.06,North,0,0.0,0.0,45,0.00,CLR,OVC,0.04,WeatherDisplay:10.37,2013-06-01 04:38:00,
2013-05-31 23:43:00,67.5,45.4,30.06,North,0,0.0,0.0,45,0.00,CLR,OVC,0.04,WeatherDisplay:10.37,2013-06-01 04:43:00,
2013-05-31 23:48:00,67.3,45.2,30.06,North,0,0.0,0.0,45,0.00,CLR,OVC,0.04,WeatherDisplay:10.37,2013-06-01 04:48:00,
2013-05-31 23:53:00,67.1,45.0,30.06,North,0,0.0,0.0,45,0.00,CLR,OVC,0.04,WeatherDisplay:10.37,2013-06-01 04:53:00,
2013-05-31 23:58:00,66.9,45.5,30.06,North,0,0.0,0.0,46,0.00,CLR,OVC,0.04,WeatherDisplay:10.37,2013-06-01 04:58:00,